DW2427 Weather Reports


Display with metric or nautical units.
time (UTC)temp
F
wind
direction
speed
MPH
gust
MPH
rain 1hr
in
rain 24hr
in
rain mn
in
humidity
%
barometer
mb
20190324105045 52 0 0.0 0.0 0.00 0.00 0.00 76 1021.6
20190324104544 52 0 0.0 0.0 0.00 0.00 0.00 76 1021.7
20190324104044 52 0 0.0 0.0 0.00 0.00 0.00 76 1021.7
20190324103544 52 0 0.0 0.0 0.00 0.00 0.00 75 1021.6
20190324103044 52 0 0.0 0.0 0.00 0.00 0.00 74 1021.5
20190324102545 52 0 0.0 0.0 0.00 0.00 0.00 73 1021.6
20190324102044 52 0 0.0 0.0 0.00 0.00 0.00 72 1021.5
20190324101544 52 0 0.0 0.0 0.00 0.00 0.00 72 1021.5
20190324101044 52 0 0.0 0.0 0.00 0.00 0.00 71 1021.4
20190324100544 52 0 0.0 0.0 0.00 0.00 0.00 70 1021.4
20190324100044 52 0 0.0 0.0 0.00 0.00 0.00 70 1021.4
20190324095544 52 0 0.0 0.0 0.00 0.00 0.00 69 1021.4
20190324095044 53 0 0.0 0.0 0.00 0.00 0.00 69 1021.3
20190324094544 53 0 0.0 0.0 0.00 0.00 0.00 68 1021.4
20190324094044 53 0 0.0 0.0 0.00 0.00 0.00 68 1021.4
20190324093545 53 0 0.0 0.0 0.00 0.00 0.00 68 1021.4
20190324093044 53 0 0.0 0.0 0.00 0.00 0.00 68 1021.4
20190324092544 53 0 0.0 0.0 0.00 0.00 0.00 68 1021.4
20190324092044 53 0 0.0 0.0 0.00 0.00 0.00 68 1021.4
20190324091543 53 0 0.0 0.0 0.00 0.00 0.00 68 1021.4
20190324091044 53 0 0.0 0.0 0.00 0.00 0.00 68 1021.5
20190324090544 53 0 0.0 0.0 0.00 0.00 0.00 68 1021.4
20190324090044 53 0 0.0 0.0 0.00 0.00 0.00 67 1021.4
20190324085544 54 0 0.0 0.0 0.00 0.00 0.00 67 1021.5
20190324085044 54 0 0.0 0.0 0.00 0.00 0.00 67 1021.5
20190324084543 54 0 0.0 0.0 0.00 0.00 0.00 67 1021.5
20190324084044 54 0 0.0 0.0 0.00 0.00 0.00 67 1021.4
20190324083544 54 0 0.0 0.0 0.00 0.00 0.00 66 1021.5
20190324083044 54 0 0.0 0.0 0.00 0.00 0.00 66 1021.5
20190324082543 54 0 0.0 0.0 0.00 0.00 0.00 66 1021.4
20190324082044 54 0 0.0 0.0 0.00 0.00 0.00 66 1021.5
20190324081544 54 0 0.0 0.0 0.00 0.00 0.00 66 1021.5
20190324081044 54 0 0.0 0.0 0.00 0.00 0.00 65 1021.4
20190324080544 54 0 0.0 0.0 0.00 0.00 0.00 65 1021.5
20190324080044 54 0 0.0 0.0 0.00 0.00 0.00 65 1021.5
20190324075544 54 0 0.0 0.0 0.00 0.00 0.00 64 1021.4
20190324075044 55 0 0.0 0.0 0.00 0.00 0.00 64 1021.3
20190324074543 55 0 0.0 0.0 0.00 0.00 0.00 63 1021.3
20190324074043 55 0 0.0 0.0 0.00 0.00 0.00 63 1021.4
20190324073544 55 0 0.0 0.0 0.00 0.00 0.00 62 1021.5
20190324073044 55 0 0.0 0.0 0.00 0.00 0.00 62 1021.5
20190324072543 55 0 0.0 0.0 0.00 0.00 0.00 62 1021.5
20190324072043 56 0 0.0 0.0 0.00 0.00 0.00 62 1021.5
20190324071544 56 0 0.0 0.0 0.00 0.00 0.00 61 1021.6
20190324071044 56 0 0.0 0.0 0.00 0.00 0.00 61 1021.5
20190324070544 56 0 0.0 0.0 0.00 0.00 0.00 60 1021.5
20190324070044 56 0 0.0 0.0 0.00 0.00 0.00 60 1021.6
20190324065543 56 0 0.0 0.0 0.00 0.00 0.00 60 1021.6
20190324065044 56 0 0.0 0.0 0.00 0.00 0.00 59 1021.7
20190324064544 57 0 0.0 0.0 0.00 0.00 0.00 59 1021.7
20190324064043 57 0 0.0 0.0 0.00 0.00 0.00 59 1021.8
20190324063543 57 0 0.0 0.0 0.00 0.00 0.00 59 1021.7
20190324063043 57 0 0.0 0.0 0.00 0.00 0.00 58 1021.8
20190324062544 57 0 0.0 0.0 0.00 0.00 0.00 58 1021.8
20190324062043 57 0 0.0 0.0 0.00 0.00 0.00 58 1021.8
20190324061543 57 0 0.0 0.0 0.00 0.00 0.00 58 1022.0
20190324061043 57 0 0.0 0.0 0.00 0.00 0.00 57 1022.0
20190324060543 57 0 0.0 0.0 0.00 0.00 0.00 56 1022.0
20190324060044 57 0 0.0 0.0 0.00 0.00 0.00 56 1022.0
20190324055544 58 0 0.0 0.0 0.00 0.00 0.00 55 1022.0
20190324055043 58 0 0.0 0.0 0.00 0.00 0.00 54 1021.9
20190324054543 58 0 0.0 0.0 0.00 0.00 0.00 54 1022.0
20190324054043 58 0 0.0 0.0 0.00 0.00 0.00 54 1022.0
20190324053543 58 0 0.0 0.0 0.00 0.00 0.00 53 1022.0
20190324053043 57 0 0.0 0.0 0.00 0.00 0.00 55 1021.8
20190324052543 57 0 0.0 0.0 0.00 0.00 0.00 56 1022.0
20190324052043 56 0 0.0 0.0 0.00 0.00 0.00 59 1021.8
20190324051544 55 0 0.0 0.0 0.00 0.00 0.00 63 1021.8
20190324051043 55 0 0.0 0.0 0.00 0.00 0.00 63 1021.8
20190324050543 56 0 0.0 0.0 0.00 0.00 0.00 63 1021.8
20190324050043 56 0 0.0 0.0 0.00 0.00 0.00 62 1021.7
20190324045543 55 0 0.0 0.0 0.00 0.00 0.00 62 1021.8
20190324045043 55 0 0.0 0.0 0.00 0.00 0.00 62 1021.9
20190324044543 55 0 0.0 0.0 0.00 0.00 0.00 60 1021.9
20190324044043 55 0 0.0 0.0 0.00 0.00 0.00 61 1021.8
20190324043543 55 0 0.0 0.0 0.00 0.00 0.00 62 1021.9
20190324043042 56 0 0.0 0.0 0.00 0.00 0.00 62 1022.0
20190324042543 56 0 0.0 0.0 0.00 0.00 0.00 61 1021.9
20190324042043 56 0 0.0 0.0 0.00 0.00 0.00 62 1021.8
20190324041543 56 0 0.0 0.0 0.00 0.00 0.00 62 1021.8
20190324041043 56 0 0.0 0.0 0.00 0.00 0.00 63 1021.9
20190324040543 56 0 0.0 0.0 0.00 0.00 0.00 64 1022.0
20190324040043 56 0 0.0 0.0 0.00 0.00 0.00 64 1021.9
20190324035543 56 0 0.0 0.0 0.00 0.00 0.00 64 1021.9
20190324035043 56 0 0.0 0.0 0.00 0.00 0.00 64 1021.8
20190324034543 56 0 0.0 0.0 0.00 0.00 0.00 64 1021.8
20190324034043 56 0 0.0 0.0 0.00 0.00 0.00 65 1021.8
20190324033543 56 0 0.0 0.0 0.00 0.00 0.00 65 1021.8
20190324033043 56 0 0.0 0.0 0.00 0.00 0.00 65 1021.8
20190324032542 56 0 0.0 0.0 0.00 0.00 0.00 64 1021.8
20190324032043 56 0 0.0 0.0 0.00 0.00 0.00 63 1021.7
20190324031543 57 0 0.0 0.0 0.00 0.00 0.00 61 1021.7
20190324031043 57 0 0.0 0.0 0.00 0.00 0.00 61 1021.6
20190324030542 57 0 0.0 0.0 0.00 0.00 0.00 59 1021.6
20190324030042 57 0 0.0 0.0 0.00 0.00 0.00 58 1021.5
20190324025543 57 0 0.0 0.0 0.00 0.00 0.00 57 1021.7
20190324025043 57 0 0.0 0.0 0.00 0.00 0.00 56 1021.7
20190324024543 57 0 0.0 0.0 0.00 0.00 0.00 56 1021.6
20190324024042 57 0 0.0 0.0 0.00 0.00 0.00 56 1021.6
20190324023542 58 0 0.0 0.0 0.00 0.00 0.00 55 1021.5
20190324023043 58 0 0.0 0.0 0.00 0.00 0.00 54 1021.6
20190324022543 58 0 0.0 0.0 0.00 0.00 0.00 54 1021.6
20190324022043 58 0 0.0 0.0 0.00 0.00 0.00 54 1021.5
20190324021542 58 0 0.0 0.0 0.00 0.00 0.00 53 1021.4
20190324021042 58 0 0.0 0.0 0.00 0.00 0.00 53 1021.4
20190324020543 58 0 0.0 0.0 0.00 0.00 0.00 53 1021.3
20190324020043 59 0 0.0 0.0 0.00 0.00 0.00 52 1021.3
20190324015542 59 0 0.0 0.0 0.00 0.00 0.00 51 1021.3
20190324015042 59 0 0.0 0.0 0.00 0.00 0.00 51 1021.1
20190324014542 59 0 0.0 0.0 0.00 0.00 0.00 51 1021.2
20190324014043 60 0 0.0 0.0 0.00 0.00 0.00 51 1021.1
20190324013543 60 0 0.0 0.0 0.00 0.00 0.00 51 1021.1
20190324013042 60 0 0.0 0.0 0.00 0.00 0.00 51 1021.0
20190324012542 61 0 0.0 0.0 0.00 0.00 0.00 49 1021.0
20190324012042 61 0 0.0 0.0 0.00 0.00 0.00 48 1021.0
20190324011543 61 0 0.0 0.0 0.00 0.00 0.00 48 1020.9
20190324011042 62 0 0.0 0.0 0.00 0.00 0.00 47 1020.9
20190324010542 62 0 0.0 0.0 0.00 0.00 0.00 45 1020.9
20190324010042 63 0 0.0 0.0 0.00 0.00 0.00 44 1020.8
20190324005542 63 0 0.0 0.0 0.00 0.00 0.00 43 1020.7
20190324005043 64 0 0.0 0.0 0.00 0.00 0.00 41 1020.7
20190324004542 64 0 0.0 0.0 0.00 0.00 0.00 40 1020.7
20190324004042 65 0 0.0 0.0 0.00 0.00 0.00 40 1020.6
20190324003542 65 0 0.0 0.0 0.00 0.00 0.00 40 1020.6
20190324003042 66 0 0.0 0.0 0.00 0.00 0.00 40 1020.5
20190324002542 66 0 0.0 0.0 0.00 0.00 0.00 39 1020.5
20190324002042 66 0 0.0 0.0 0.00 0.00 0.00 38 1020.5
20190324001542 67 0 0.0 0.0 0.00 0.00 0.00 37 1020.5
20190324001042 68 0 0.0 0.0 0.00 0.00 0.00 35 1020.5
20190324000543 69 0 0.0 0.0 0.00 0.00 0.00 33 1020.5
20190324000043 70 0 0.0 0.0 0.00 0.00 0.00 32 1020.4
20190323235542 71 0 0.0 0.0 0.00 0.00 0.00 31 1020.4
20190323235042 71 0 0.0 0.0 0.00 0.00 0.00 29 1020.4
20190323234542 72 0 0.0 0.0 0.00 0.00 0.00 28 1020.3
20190323234041 72 0 0.0 0.0 0.00 0.00 0.00 27 1020.2
20190323233542 72 0 0.0 0.0 0.00 0.00 0.00 26 1020.1
20190323233042 72 0 0.0 0.0 0.00 0.00 0.00 26 1020.2
20190323232542 73 0 0.0 0.0 0.00 0.00 0.00 26 1020.0
20190323232042 73 0 0.0 0.0 0.00 0.00 0.00 25 1020.0
20190323231542 73 0 0.0 0.0 0.00 0.00 0.00 25 1020.1
20190323231042 74 0 0.0 0.0 0.00 0.00 0.00 25 1020.2
20190323230542 74 0 0.0 0.0 0.00 0.00 0.00 25 1020.0
20190323230042 74 0 0.0 0.0 0.00 0.00 0.00 25 1020.1
20190323225541 74 0 0.0 0.0 0.00 0.00 0.00 24 1019.8
20190323225041 74 0 0.0 0.0 0.00 0.00 0.00 24 1019.9
20190323224542 75 0 0.0 0.0 0.00 0.00 0.00 24 1019.7
20190323224042 75 0 0.0 0.0 0.00 0.00 0.00 23 1019.6
20190323223542 75 0 0.0 0.0 0.00 0.00 0.00 24 1019.8
20190323223041 75 65 0.0 2.0 0.00 0.00 0.00 24 1019.6
20190323222541 75 65 0.0 2.0 0.00 0.00 0.00 24 1019.6
20190323222042 75 115 0.0 1.0 0.00 0.00 0.00 24 1019.6
20190323221542 75 115 0.0 1.0 0.00 0.00 0.00 24 1019.5
20190323221042 75 102 0.0 1.0 0.00 0.00 0.00 23 1019.5
20190323220541 75 77 0.0 2.0 0.00 0.00 0.00 23 1019.5
20190323220042 76 71 0.0 3.0 0.00 0.00 0.00 22 1019.4
20190323215542 76 70 0.0 3.0 0.00 0.00 0.00 22 1019.7
20190323215041 76 0 0.0 0.0 0.00 0.00 0.00 22 1019.6
20190323214541 76 0 0.0 0.0 0.00 0.00 0.00 22 1019.5
20190323214041 76 0 0.0 0.0 0.00 0.00 0.00 22 1019.4
20190323213542 76 0 0.0 0.0 0.00 0.00 0.00 23 1019.5
20190323213042 77 0 0.0 0.0 0.00 0.00 0.00 21 1019.5
20190323212542 76 0 0.0 0.0 0.00 0.00 0.00 21 1019.5
20190323212041 76 0 0.0 0.0 0.00 0.00 0.00 23 1019.6
20190323211542 76 0 0.0 0.0 0.00 0.00 0.00 23 1019.7
20190323211042 76 0 0.0 0.0 0.00 0.00 0.00 21 1019.6
20190323210542 75 0 0.0 0.0 0.00 0.00 0.00 23 1019.6
20190323210041 75 0 0.0 0.0 0.00 0.00 0.00 22 1019.6
20190323205541 75 0 0.0 0.0 0.00 0.00 0.00 22 1019.6
20190323205042 75 0 0.0 0.0 0.00 0.00 0.00 22 1019.8
20190323204541 75 0 0.0 0.0 0.00 0.00 0.00 23 1019.9
20190323204041 75 0 0.0 0.0 0.00 0.00 0.00 23 1019.8
20190323203541 75 69 0.0 5.0 0.00 0.00 0.00 24 1019.8
20190323203041 75 70 0.0 5.0 0.00 0.00 0.00 23 1019.8
20190323202542 75 76 0.0 3.0 0.00 0.00 0.00 23 1019.7
20190323202041 75 77 0.0 3.0 0.00 0.00 0.00 23 1019.9
20190323201541 75 0 0.0 0.0 0.00 0.00 0.00 23 1019.9
20190323201041 74 0 0.0 0.0 0.00 0.00 0.00 26 1020.0
20190323200541 75 0 0.0 0.0 0.00 0.00 0.00 24 1020.1
20190323200042 76 0 0.0 0.0 0.00 0.00 0.00 24 1020.2
20190323195541 76 0 0.0 0.0 0.00 0.00 0.00 23 1020.0
20190323195041 76 0 0.0 0.0 0.00 0.00 0.00 23 1020.0
20190323194541 75 0 0.0 0.0 0.00 0.00 0.00 24 1020.1
20190323194041 75 0 0.0 0.0 0.00 0.00 0.00 24 1020.1
20190323193542 75 0 0.0 0.0 0.00 0.00 0.00 23 1020.2
20190323193041 74 0 0.0 0.0 0.00 0.00 0.00 26 1020.3
20190323192541 74 0 0.0 0.0 0.00 0.00 0.00 26 1020.5
20190323192041 73 0 0.0 0.0 0.00 0.00 0.00 27 1020.6
20190323191541 73 0 0.0 0.0 0.00 0.00 0.00 25 1020.6
20190323191041 73 0 0.0 0.0 0.00 0.00 0.00 27 1020.7
20190323190541 72 0 0.0 0.0 0.00 0.00 0.00 26 1020.7
20190323190041 72 0 0.0 0.0 0.00 0.00 0.00 27 1020.9
20190323185541 72 0 0.0 0.0 0.00 0.00 0.00 26 1020.8
20190323185041 72 0 0.0 0.0 0.00 0.00 0.00 26 1020.9
20190323184541 72 0 0.0 0.0 0.00 0.00 0.00 28 1021.0
20190323184041 72 0 0.0 0.0 0.00 0.00 0.00 28 1020.9
20190323183541 72 0 0.0 0.0 0.00 0.00 0.00 27 1020.9
20190323183041 72 0 0.0 0.0 0.00 0.00 0.00 28 1020.9
20190323182541 72 0 0.0 0.0 0.00 0.00 0.00 27 1021.0
20190323182041 72 0 0.0 0.0 0.00 0.00 0.00 27 1021.1
20190323181541 73 0 0.0 0.0 0.00 0.00 0.00 28 1021.1
20190323181041 73 0 0.0 0.0 0.00 0.00 0.00 29 1021.2
20190323180540 72 0 0.0 0.0 0.00 0.00 0.00 27 1021.2
20190323180041 72 0 0.0 0.0 0.00 0.00 0.00 29 1021.3
20190323175541 71 0 0.0 0.0 0.00 0.00 0.00 30 1021.4
20190323175041 71 0 0.0 0.0 0.00 0.00 0.00 28 1021.3
20190323174540 71 83 0.0 6.0 0.00 0.00 0.00 29 1021.4
20190323174040 71 83 0.0 6.0 0.00 0.00 0.00 30 1021.4
20190323173541 71 66 0.0 1.0 0.00 0.00 0.00 30 1021.5
20190323173041 72 38 0.0 1.0 0.00 0.00 0.00 29 1021.6
20190323172541 71 265 0.0 1.0 0.00 0.00 0.00 29 1021.7
20190323172040 71 273 0.0 1.0 0.00 0.00 0.00 29 1021.7
20190323171540 70 288 0.0 1.0 0.00 0.00 0.00 30 1021.8
20190323171041 69 134 0.0 1.0 0.00 0.00 0.00 32 1021.9
20190323170541 69 134 0.0 1.0 0.00 0.00 0.00 32 1022.0
20190323170041 69 79 0.0 1.0 0.00 0.00 0.00 32 1022.0
20190323165540 69 81 0.0 4.0 0.00 0.00 0.00 32 1022.2
20190323165040 70 81 0.0 4.0 0.00 0.00 0.00 30 1022.1
20190323164541 70 313 0.0 1.0 0.00 0.00 0.00 29 1022.3
20190323164041 69 328 0.0 1.0 0.00 0.00 0.00 31 1022.3
20190323163540 69 332 0.0 1.0 0.00 0.00 0.00 30 1022.3
20190323163040 68 0 0.0 0.0 0.00 0.00 0.00 31 1022.4
20190323162540 68 0 0.0 0.0 0.00 0.00 0.00 31 1022.5
20190323162041 68 0 0.0 0.0 0.00 0.00 0.00 30 1022.5
20190323161540 68 0 0.0 0.0 0.00 0.00 0.00 32 1022.6
20190323161040 67 82 0.0 1.0 0.00 0.00 0.00 34 1022.7
20190323160540 67 82 0.0 1.0 0.00 0.00 0.00 32 1022.7
20190323160041 68 0 0.0 0.0 0.00 0.00 0.00 35 1022.7
20190323155540 68 0 0.0 0.0 0.00 0.00 0.00 34 1022.6
20190323155040 67 1 0.0 2.0 0.00 0.00 0.00 33 1022.6
20190323154540 67 358 0.0 2.0 0.00 0.00 0.00 32 1022.5
20190323154040 67 53 0.0 1.0 0.00 0.00 0.00 34 1022.6
20190323153540 67 30 0.0 1.0 0.00 0.00 0.00 33 1022.6
20190323153040 67 320 0.0 1.0 0.00 0.00 0.00 33 1022.6
20190323152540 66 0 0.0 0.0 0.00 0.00 0.00 35 1022.5
20190323152040 66 0 0.0 0.0 0.00 0.00 0.00 35 1022.6
20190323151540 65 74 0.0 2.0 0.00 0.00 0.00 37 1022.6
20190323151041 65 74 0.0 2.0 0.00 0.00 0.00 39 1022.5
20190323150540 64 0 0.0 0.0 0.00 0.00 0.00 38 1022.5
20190323150040 64 66 0.0 5.0 0.00 0.00 0.00 39 1022.5
20190323145540 64 65 0.0 5.0 0.00 0.00 0.00 40 1022.5
20190323145040 64 68 0.0 2.0 0.00 0.00 0.00 42 1022.4
20190323144540 64 69 0.0 2.0 0.00 0.00 0.00 42 1022.3
20190323144040 63 0 0.0 0.0 0.00 0.00 0.00 41 1022.3
20190323143540 63 0 0.0 0.0 0.00 0.00 0.00 42 1022.2
20190323143040 63 0 0.0 0.0 0.00 0.00 0.00 43 1022.1
20190323142540 62 0 0.0 0.0 0.00 0.00 0.00 43 1022.1
20190323142040 62 0 0.0 0.0 0.00 0.00 0.00 45 1022.0
20190323141540 61 0 0.0 0.0 0.00 0.00 0.00 46 1022.0
20190323141040 61 0 0.0 0.0 0.00 0.00 0.00 46 1022.0
20190323140540 60 0 0.0 0.0 0.00 0.00 0.00 48 1022.0
20190323140040 59 0 0.0 0.0 0.00 0.00 0.00 49 1021.8
20190323135540 59 0 0.0 0.0 0.00 0.00 0.00 49 1021.9
20190323135040 59 0 0.0 0.0 0.00 0.00 0.00 48 1021.9
20190323134540 58 0 0.0 0.0 0.00 0.00 0.00 48 1021.8
20190323134040 58 0 0.0 0.0 0.00 0.00 0.00 50 1021.7
20190323133540 58 0 0.0 0.0 0.00 0.00 0.00 53 1021.7
20190323133040 57 0 0.0 0.0 0.00 0.00 0.00 56 1021.6
20190323132540 56 0 0.0 0.0 0.00 0.00 0.00 58 1021.6
20190323132040 55 0 0.0 0.0 0.00 0.00 0.00 60 1021.4
20190323131539 54 0 0.0 0.0 0.00 0.00 0.00 62 1021.4
20190323131040 54 0 0.0 0.0 0.00 0.00 0.00 63 1021.3
20190323130540 53 0 0.0 0.0 0.00 0.00 0.00 63 1021.2
20190323130040 52 0 0.0 0.0 0.00 0.00 0.00 63 1021.0
20190323125540 52 0 0.0 0.0 0.00 0.00 0.00 70 1020.9
20190323125039 51 0 0.0 0.0 0.00 0.00 0.00 70 1020.8
20190323124540 50 0 0.0 0.0 0.00 0.00 0.00 75 1020.8
20190323124040 49 0 0.0 0.0 0.00 0.00 0.00 75 1020.7
20190323123540 49 0 0.0 0.0 0.00 0.00 0.00 77 1020.4
20190323123039 48 0 0.0 0.0 0.00 0.00 0.00 78 1020.4
20190323122539 47 0 0.0 0.0 0.00 0.00 0.00 80 1020.3
20190323122040 46 0 0.0 0.0 0.00 0.00 0.00 81 1020.3
20190323121540 45 0 0.0 0.0 0.00 0.00 0.00 82 1020.2
20190323121040 45 0 0.0 0.0 0.00 0.00 0.00 83 1020.1
20190323120539 44 0 0.0 0.0 0.00 0.00 0.00 83 1019.8
20190323120039 44 0 0.0 0.0 0.00 0.00 0.00 82 1019.8
20190323115540 44 0 0.0 0.0 0.00 0.00 0.00 82 1019.6
20190323115040 44 0 0.0 0.0 0.00 0.00 0.00 82 1019.5
20190323114539 44 0 0.0 0.0 0.00 0.00 0.00 82 1019.4
20190323114039 44 0 0.0 0.0 0.00 0.00 0.00 82 1019.4
20190323113539 44 0 0.0 0.0 0.00 0.00 0.00 81 1019.3
20190323113040 44 0 0.0 0.0 0.00 0.00 0.00 81 1019.2
20190323112540 44 0 0.0 0.0 0.00 0.00 0.00 81 1019.2
20190323112039 44 0 0.0 0.0 0.00 0.00 0.00 81 1019.0
20190323111539 44 0 0.0 0.0 0.00 0.00 0.00 80 1018.9
20190323111039 44 0 0.0 0.0 0.00 0.00 0.00 80 1018.9
20190323110540 44 0 0.0 0.0 0.00 0.00 0.00 80 1018.8
20190323110040 44 0 0.0 0.0 0.00 0.00 0.00 79 1018.8
20190323105539 45 0 0.0 0.0 0.00 0.00 0.00 79 1018.7